Meteo orario Zagorodnaya

Oggi, 7 Maggio, Venerdi

Tempo Temperatura Precipitazioni Vento Pressione Umidità
00:00 +1°C° 0 mm 4 m/s 738 mm Hg 82%
01:00 +2°C° 0 mm 3 m/s 738 mm Hg 83%
02:00 +1°C° 0 mm 3 m/s 738 mm Hg 86%
03:00 +1°C° 0 mm 3 m/s 738 mm Hg 85%
04:00 +1°C° 0 mm 3 m/s 738 mm Hg 85%
05:00 +1°C° 0 mm 3 m/s 738 mm Hg 84%
06:00 +3°C° 0 mm 4 m/s 738 mm Hg 80%
07:00 +5°C° 0 mm 4 m/s 738 mm Hg 75%
08:00 +7°C° 0 mm 5 m/s 738 mm Hg 71%
09:00 +8°C° 0.1 mm 5 m/s 738 mm Hg 67%
10:00 +9°C° 0.1 mm 5 m/s 738 mm Hg 64%
11:00 +10°C° 0.1 mm 6 m/s 738 mm Hg 61%
12:00 +11°C° 0.2 mm 6 m/s 737 mm Hg 60%
13:00 +11°C° 0.2 mm 6 m/s 737 mm Hg 60%
14:00 +11°C° 0.2 mm 6 m/s 737 mm Hg 59%
15:00 +10°C° 0.4 mm 6 m/s 737 mm Hg 68%
16:00 +9°C° 0.4 mm 5 m/s 736 mm Hg 76%
17:00 +8°C° 0.4 mm 5 m/s 736 mm Hg 84%
18:00 +7°C° 0.6 mm 5 m/s 736 mm Hg 88%
19:00 +7°C° 0.6 mm 4 m/s 736 mm Hg 91%
20:00 +6°C° 0.6 mm 4 m/s 735 mm Hg 95%
21:00 +6°C° 0.3 mm 4 m/s 735 mm Hg 95%
22:00 +7°C° 0.3 mm 3 m/s 735 mm Hg 96%
23:00 +8°C° 0.3 mm 3 m/s 734 mm Hg 97%

Domani, 8 Maggio, Sabato

Tempo Temperatura Precipitazioni Vento Pressione Umidità
00:00 +7°C° 0.1 mm 3 m/s 734 mm Hg 97%
01:00 +7°C° 0.1 mm 2 m/s 734 mm Hg 97%
02:00 +6°C° 0.1 mm 2 m/s 734 mm Hg 97%
03:00 +6°C° 0 mm 2 m/s 734 mm Hg 97%
04:00 +6°C° 0 mm 2 m/s 734 mm Hg 97%
05:00 +6°C° 0 mm 2 m/s 734 mm Hg 97%
06:00 +5°C° 0 mm 3 m/s 734 mm Hg 94%
07:00 +5°C° 0 mm 4 m/s 734 mm Hg 90%
08:00 +6°C° 0 mm 5 m/s 734 mm Hg 86%
09:00 +6°C° 0.1 mm 5 m/s 735 mm Hg 85%
10:00 +5°C° 0.1 mm 6 m/s 735 mm Hg 83%
11:00 +5°C° 0.1 mm 6 m/s 735 mm Hg 82%
12:00 +5°C° 0.2 mm 7 m/s 736 mm Hg 81%
13:00 +5°C° 0.2 mm 7 m/s 736 mm Hg 79%
14:00 +5°C° 0.2 mm 7 m/s 737 mm Hg 77%
15:00 +5°C° 0 mm 7 m/s 737 mm Hg 75%
16:00 +5°C° 0 mm 7 m/s 738 mm Hg 72%
17:00 +5°C° 0 mm 7 m/s 738 mm Hg 70%
18:00 +4°C° 0 mm 6 m/s 739 mm Hg 71%
19:00 +3°C° 0 mm 5 m/s 739 mm Hg 73%
20:00 +3°C° 0 mm 4 m/s 740 mm Hg 74%
21:00 +1°C° 0 mm 4 m/s 740 mm Hg 73%
22:00 +1°C° 0 mm 4 m/s 741 mm Hg 72%
23:00 +1°C° 0 mm 5 m/s 741 mm Hg 71%

Dopodomani, 9 Maggio, Domenica

Tempo Temperatura Precipitazioni Vento Pressione Umidità
00:00 0°C° 0 mm 4 m/s 742 mm Hg 76%
01:00 0°C° 0 mm 4 m/s 743 mm Hg 81%
02:00 -1°C° 0 mm 4 m/s 743 mm Hg 86%
03:00 0°C° 0 mm 3 m/s 744 mm Hg 86%
04:00 -1°C° 0 mm 3 m/s 744 mm Hg 86%
05:00 -1°C° 0 mm 3 m/s 745 mm Hg 86%
06:00 +1°C° 0 mm 3 m/s 746 mm Hg 78%
07:00 +3°C° 0 mm 4 m/s 746 mm Hg 70%
08:00 +5°C° 0 mm 4 m/s 747 mm Hg 62%
09:00 +6°C° 0 mm 4 m/s 747 mm Hg 57%
10:00 +7°C° 0 mm 4 m/s 748 mm Hg 51%
11:00 +10°C° 0 mm 4 m/s 748 mm Hg 46%
12:00 +10°C° 0 mm 4 m/s 748 mm Hg 45%
13:00 +11°C° 0 mm 3 m/s 749 mm Hg 43%
14:00 +11°C° 0 mm 3 m/s 749 mm Hg 42%
15:00 +12°C° 0 mm 3 m/s 749 mm Hg 43%
16:00 +13°C° 0 mm 2 m/s 749 mm Hg 44%
17:00 +13°C° 0 mm 2 m/s 749 mm Hg 46%
18:00 +10°C° 0 mm 2 m/s 749 mm Hg 53%
19:00 +8°C° 0 mm 2 m/s 750 mm Hg 59%
20:00 +7°C° 0 mm 2 m/s 750 mm Hg 66%
21:00 +5°C° 0 mm 3 m/s 750 mm Hg 68%
22:00 +4°C° 0 mm 3 m/s 750 mm Hg 70%
23:00 +4°C° 0 mm 3 m/s 751 mm Hg 72%

10 Maggio, Lunedi

Tempo Temperatura Precipitazioni Vento Pressione Umidità
00:00 +3°C° 0 mm 3 m/s 751 mm Hg 75%
01:00 +3°C° 0 mm 3 m/s 751 mm Hg 77%
02:00 +3°C° 0 mm 3 m/s 751 mm Hg 79%
03:00 +3°C° 0 mm 3 m/s 752 mm Hg 80%
04:00 +3°C° 0 mm 3 m/s 752 mm Hg 80%
05:00 +3°C° 0 mm 3 m/s 752 mm Hg 81%
06:00 +5°C° 0 mm 3 m/s 752 mm Hg 76%
07:00 +7°C° 0 mm 4 m/s 753 mm Hg 70%
08:00 +10°C° 0 mm 4 m/s 753 mm Hg 64%
09:00 +11°C° 0 mm 4 m/s 753 mm Hg 61%
10:00 +13°C° 0 mm 4 m/s 753 mm Hg 58%
11:00 +14°C° 0 mm 4 m/s 753 mm Hg 54%
12:00 +15°C° 0 mm 4 m/s 753 mm Hg 53%
13:00 +15°C° 0 mm 4 m/s 753 mm Hg 52%
14:00 +17°C° 0 mm 4 m/s 753 mm Hg 51%
15:00 +17°C° 0 mm 3 m/s 753 mm Hg 54%
16:00 +17°C° 0 mm 3 m/s 752 mm Hg 56%
17:00 +17°C° 0 mm 3 m/s 752 mm Hg 59%
18:00 +14°C° 0 mm 3 m/s 752 mm Hg 66%
19:00 +12°C° 0 mm 3 m/s 752 mm Hg 72%
20:00 +10°C° 0 mm 3 m/s 753 mm Hg 78%
21:00 +9°C° 0 mm 3 m/s 753 mm Hg 79%
22:00 +9°C° 0 mm 3 m/s 753 mm Hg 80%
23:00 +8°C° 0 mm 3 m/s 753 mm Hg 80%

11 Maggio, Martedi

Tempo Temperatura Precipitazioni Vento Pressione Umidità
00:00 +7°C° 0 mm 3 m/s 753 mm Hg 80%
01:00 +7°C° 0 mm 3 m/s 753 mm Hg 81%
02:00 +7°C° 0 mm 3 m/s 753 mm Hg 81%
03:00 +7°C° 0 mm 3 m/s 753 mm Hg 80%
04:00 +5°C° 0 mm 3 m/s 753 mm Hg 80%
05:00 +5°C° 0 mm 3 m/s 753 mm Hg 79%
06:00 +8°C° 0 mm 3 m/s 753 mm Hg 74%
07:00 +10°C° 0 mm 3 m/s 753 mm Hg 68%
08:00 +12°C° 0 mm 3 m/s 753 mm Hg 63%
09:00 +14°C° 0 mm 3 m/s 753 mm Hg 60%
10:00 +15°C° 0 mm 4 m/s 753 mm Hg 57%
11:00 +17°C° 0 mm 4 m/s 753 mm Hg 54%
12:00 +18°C° 0 mm 4 m/s 753 mm Hg 54%
13:00 +18°C° 0 mm 4 m/s 753 mm Hg 53%
14:00 +19°C° 0 mm 4 m/s 752 mm Hg 53%
15:00 +19°C° 0 mm 4 m/s 752 mm Hg 56%
16:00 +19°C° 0 mm 3 m/s 752 mm Hg 59%
17:00 +19°C° 0 mm 3 m/s 751 mm Hg 63%
18:00 +17°C° 0 mm 3 m/s 751 mm Hg 69%
19:00 +14°C° 0 mm 3 m/s 751 mm Hg 76%
20:00 +12°C° 0 mm 3 m/s 751 mm Hg 83%
21:00 +12°C° 0 mm 3 m/s 751 mm Hg 85%
22:00 +11°C° 0 mm 3 m/s 751 mm Hg 87%
23:00 +10°C° 0 mm 3 m/s 751 mm Hg 89%

12 Maggio, Mercoledi

Tempo Temperatura Precipitazioni Vento Pressione Umidità
00:00 +10°C° 0 mm 3 m/s 751 mm Hg 90%
01:00 +9°C° 0 mm 3 m/s 751 mm Hg 91%
02:00 +8°C° 0 mm 3 m/s 750 mm Hg 92%
03:00 +8°C° 0 mm 3 m/s 750 mm Hg 91%
04:00 +8°C° 0 mm 3 m/s 750 mm Hg 90%
05:00 +8°C° 0 mm 3 m/s 750 mm Hg 90%
06:00 +10°C° 0 mm 3 m/s 750 mm Hg 83%
07:00 +12°C° 0 mm 4 m/s 750 mm Hg 76%
08:00 +13°C° 0 mm 4 m/s 750 mm Hg 70%
09:00 +15°C° 0 mm 4 m/s 750 mm Hg 66%
10:00 +16°C° 0 mm 5 m/s 750 mm Hg 61%
11:00 +17°C° 0 mm 5 m/s 749 mm Hg 57%
12:00 +19°C° 0 mm 5 m/s 749 mm Hg 55%
13:00 +19°C° 0 mm 5 m/s 749 mm Hg 54%
14:00 +20°C° 0 mm 5 m/s 748 mm Hg 52%
15:00 +20°C° 0 mm 5 m/s 748 mm Hg 55%
16:00 +19°C° 0 mm 4 m/s 748 mm Hg 58%
17:00 +19°C° 0 mm 4 m/s 747 mm Hg 61%
18:00 +17°C° 0 mm 4 m/s 747 mm Hg 68%
19:00 +15°C° 0 mm 4 m/s 747 mm Hg 75%
20:00 +13°C° 0 mm 3 m/s 747 mm Hg 82%
21:00 +12°C° 0 mm 3 m/s 747 mm Hg 84%
22:00 +12°C° 0 mm 3 m/s 747 mm Hg 86%
23:00 +12°C° 0 mm 4 m/s 747 mm Hg 89%
Mostrare altro

Abbiamo bisogno del tuo consenso

Meteoprog e i nostri fornitori di servizi possono memorizzare e accedere a dati personali come cookie, identificatori di dispositivi o altre tecnologie simili sul tuo dispositivo e possono elaborare tali dati per personalizzare i contenuti e gli annunci, nonché fornire funzionalità dei social media e analizzarne il traffico.

  • Archiviare e/o accedere alle informazioni sul tuo dispositivo

    Cookie, identificatori di dispositivi o altre informazioni possono essere memorizzati o resi accessibili sul tuo dispositivo per le finalità sopra indicate.

  • Annunci e contenuti personalizzati, misurazione di annunci e contenuti, approfondimenti sul pubblico e sviluppo di prodotti

    Gli annunci e i contenuti possono essere personalizzati in base a un profilo. È possibile aggiungere più dati per personalizzare meglio annunci e contenuti. È possibile misurare il rendimento degli annunci e dei contenuti. È possibile ricavare informazioni sul pubblico che ha visto gli annunci e i contenuti. Tali dati possono essere utilizzati per sviluppare o migliorare l'esperienza, i sistemi e il software dell'utente.

Cliccando su “Accetto”, acconsenti all'uso di cookie, identificatori di dispositivo, web beacon o altre tecnologie simili. Puoi modificare le impostazioni nel browser del tuo dispositivo.

Per determinati scopi, è possibile fare affidamento su interessi legali, piuttosto che sul consenso. Puoi approfondire questo argomento consultando la nostra Informativa sulla privacy e sui cookie.